Ingeniero Juan Guillermo Villasana Airport

Jump to: basic info | weather | frequencies | runways | comments

Related pages: nearby airports | nearby navaids | notams | map

Basic information (top)

Codes: MMPC
Location: lon 20.077400, lat -98.782501, elev 7,600 ft / 2,316 m msl
Status: small_airport

Weather (top)

Current conditions for Licenciado Benito Juarez International Airport 42nm (77km) SSW (rec'd 2014/12/21 01:45Z):

MMMX 210145Z 15008KT 9SM FEW080 18/07 A3027 NOSIG RMK 8/030 HZY

Airport forecast for Licenciado Benito Juarez International Airport 42nm (77km) SSW (rec'd 2014/12/20 06:57Z):

TAF MMMX 200550Z 2006/2112 22005KT P6SM SCT020 TX24/2021Z TN09/2012Z 
     FM201800 16010KT P6SM SCT020 BKN250 
     FM210600 04005KT P6SM SCT250

Frequencies (top)

Verify before use: may be inaccurate or out of date.

AFIS: 122.9 MHz (AFIS)

Runways (top)

03/21: 6,825 x 85 ft (2,080 x 26 m) — paved — not lighted — threshold 03 displaced 656 ft (200 m) — threshold 21 displaced 865 ft (264 m)

Latest comments (top)

No comments yet for Ingeniero Juan Guillermo Villasana Airport

More... (top)

See also NOTAMs and nearby airports and navaids, or visit the Ingeniero Juan Guillermo Villasana Airport page at the main OurAirports website..